TimeCDT,TemperatureF,Dew PointF,Humidity,Sea Level PressureIn,VisibilityMPH,Wind Direction,Wind SpeedMPH,Gust SpeedMPH,PrecipitationIn,Events,Conditions,WindDirDegrees,DateUTC
12:13 AM,66.2,60.8,83,29.85,10.0,NW,11.5,18.4,N/A,,Clear,320,2013-06-28 05:13:00
12:33 AM,66.2,60.8,83,29.85,10.0,NW,15.0,19.6,N/A,,Clear,320,2013-06-28 05:33:00
12:53 AM,64.4,60.8,88,29.85,10.0,NW,15.0,19.6,N/A,,Clear,320,2013-06-28 05:53:00
1:33 AM,64.4,60.8,88,29.85,10.0,NW,13.8,-,N/A,,Clear,310,2013-06-28 06:33:00
1:53 AM,64.4,60.8,88,29.85,10.0,NW,13.8,-,N/A,,Clear,310,2013-06-28 06:53:00
2:13 AM,64.4,60.8,88,29.85,10.0,NW,12.7,18.4,N/A,,Clear,310,2013-06-28 07:13:00
2:33 AM,64.4,60.8,88,29.85,10.0,NW,12.7,-,N/A,,Clear,320,2013-06-28 07:33:00
2:53 AM,64.4,60.8,88,29.85,10.0,NW,11.5,-,N/A,,Clear,320,2013-06-28 07:53:00
3:12 AM,64.4,60.8,88,29.86,10.0,NW,16.1,20.7,N/A,,Clear,310,2013-06-28 08:12:00
3:30 AM,62.6,60.8,94,29.85,10.0,NW,11.5,-,N/A,,Clear,320,2013-06-28 08:30:00
3:53 AM,62.6,60.8,94,29.85,10.0,Calm,Calm,-,N/A,,Clear,310,2013-06-28 08:53:00
4:13 AM,62.6,60.8,94,29.86,10.0,NW,12.7,-,N/A,,Clear,320,2013-06-28 09:13:00
4:33 AM,62.6,60.8,94,29.86,10.0,NW,12.7,-,N/A,,Clear,320,2013-06-28 09:33:00
4:53 AM,62.6,60.8,94,29.86,10.0,NW,12.7,18.4,N/A,,Clear,320,2013-06-28 09:53:00
5:13 AM,62.6,60.8,94,29.86,10.0,NW,13.8,18.4,N/A,,Clear,310,2013-06-28 10:13:00
5:33 AM,62.6,60.8,94,29.87,10.0,NW,13.8,-,N/A,,Mostly Cloudy,310,2013-06-28 10:33:00
5:49 AM,62.6,60.8,94,29.87,10.0,NW,13.8,20.7,N/A,,Overcast,310,2013-06-28 10:49:00
6:13 AM,64.4,62.6,94,29.88,10.0,NW,16.1,21.9,N/A,,Overcast,320,2013-06-28 11:13:00
6:33 AM,62.6,62.6,100,29.88,4.0,NNW,17.3,21.9,N/A,Rain,Light Rain,330,2013-06-28 11:33:00
6:54 AM,64.4,62.6,94,29.88,10.0,NNW,18.4,21.9,N/A,,Overcast,340,2013-06-28 11:54:00
7:13 AM,64.4,62.6,94,29.89,5.0,North,-9999.0,-,N/A,,Overcast,0,2013-06-28 12:13:00
7:33 AM,64.4,62.6,94,29.89,10.0,NNW,16.1,20.7,N/A,,Overcast,330,2013-06-28 12:33:00
7:53 AM,64.4,62.6,94,29.90,10.0,NNW,17.3,23.0,N/A,,Overcast,340,2013-06-28 12:53:00
8:13 AM,64.4,62.6,94,29.90,10.0,NNW,17.3,21.9,N/A,,Overcast,340,2013-06-28 13:13:00
8:33 AM,64.4,62.6,94,29.91,10.0,NNW,15.0,19.6,N/A,,Overcast,330,2013-06-28 13:33:00
8:53 AM,66.2,64.4,94,29.91,10.0,NNW,13.8,20.7,N/A,,Overcast,340,2013-06-28 13:53:00
9:14 AM,66.2,64.4,94,29.92,10.0,NNW,16.1,21.9,N/A,,Overcast,340,2013-06-28 14:14:00
9:33 AM,66.2,64.4,94,29.92,10.0,NNW,15.0,20.7,N/A,,Overcast,330,2013-06-28 14:33:00
9:53 AM,66.2,64.4,94,29.92,10.0,NNW,15.0,-,N/A,,Overcast,340,2013-06-28 14:53:00
10:13 AM,66.2,64.4,94,29.92,10.0,NNW,16.1,21.9,N/A,,Overcast,330,2013-06-28 15:13:00
10:33 AM,66.2,64.4,94,29.92,10.0,NNW,17.3,-,N/A,,Overcast,340,2013-06-28 15:33:00
10:53 AM,68.0,64.4,88,29.93,10.0,NNW,18.4,-,N/A,,Overcast,340,2013-06-28 15:53:00
11:13 AM,69.8,64.4,83,29.93,10.0,North,16.1,23.0,N/A,,Mostly Cloudy,350,2013-06-28 16:13:00
11:33 AM,69.8,64.4,83,29.93,10.0,NNW,15.0,-,N/A,,Scattered Clouds,340,2013-06-28 16:33:00
11:53 AM,69.8,64.4,83,29.93,10.0,NNW,15.0,19.6,N/A,,Mostly Cloudy,330,2013-06-28 16:53:00
12:13 PM,71.6,64.4,78,29.93,10.0,NNW,19.6,-,N/A,,Mostly Cloudy,340,2013-06-28 17:13:00
12:33 PM,73.4,64.4,73,29.93,10.0,NNW,18.4,-,N/A,,Scattered Clouds,340,2013-06-28 17:33:00
12:53 PM,73.4,64.4,73,29.93,10.0,NNW,18.4,23.0,N/A,,Mostly Cloudy,330,2013-06-28 17:53:00
1:13 PM,73.4,64.4,73,29.93,10.0,NNW,18.4,24.2,N/A,,Mostly Cloudy,340,2013-06-28 18:13:00
1:33 PM,75.2,64.4,69,29.92,10.0,NNW,19.6,-,N/A,,Scattered Clouds,340,2013-06-28 18:33:00
1:53 PM,75.2,60.8,61,29.92,10.0,NNW,17.3,21.9,N/A,,Clear,340,2013-06-28 18:53:00
2:13 PM,75.2,62.6,65,29.92,10.0,North,18.4,23.0,N/A,,Clear,350,2013-06-28 19:13:00
2:33 PM,77.0,62.6,61,29.92,10.0,North,19.6,26.5,N/A,,Scattered Clouds,360,2013-06-28 19:33:00
2:53 PM,77.0,64.4,65,29.92,10.0,North,13.8,23.0,N/A,,Scattered Clouds,360,2013-06-28 19:53:00
3:13 PM,77.0,64.4,65,29.91,10.0,North,20.7,-,N/A,,Scattered Clouds,350,2013-06-28 20:13:00
3:33 PM,75.2,62.6,65,29.91,10.0,North,19.6,24.2,N/A,,Scattered Clouds,350,2013-06-28 20:33:00
3:53 PM,77.0,62.6,61,29.91,10.0,North,19.6,23.0,N/A,,Scattered Clouds,350,2013-06-28 20:53:00
4:13 PM,77.0,62.6,61,29.91,10.0,NNW,20.7,24.2,N/A,,Scattered Clouds,340,2013-06-28 21:13:00
4:33 PM,78.8,62.6,57,29.91,10.0,NNW,18.4,21.9,N/A,,Scattered Clouds,330,2013-06-28 21:33:00
4:53 PM,78.8,62.6,57,29.91,10.0,NNW,17.3,24.2,N/A,,Scattered Clouds,330,2013-06-28 21:53:00
5:13 PM,78.8,62.6,57,29.91,10.0,NNW,15.0,21.9,N/A,,Scattered Clouds,330,2013-06-28 22:13:00
5:33 PM,75.2,62.6,65,29.90,10.0,North,17.3,24.2,N/A,,Mostly Cloudy,360,2013-06-28 22:33:00
5:52 PM,75.2,62.6,65,29.91,10.0,North,13.8,18.4,N/A,,Mostly Cloudy,360,2013-06-28 22:52:00
6:13 PM,73.4,64.4,73,29.92,10.0,NNE,17.3,25.3,N/A,,Mostly Cloudy,20,2013-06-28 23:13:00
6:33 PM,69.8,64.4,83,29.93,7.0,North,12.7,-,N/A,Rain,Rain,360,2013-06-28 23:33:00
6:53 PM,69.8,64.4,83,29.93,10.0,North,15.0,19.6,N/A,Rain,Light Rain,360,2013-06-28 23:53:00
7:13 PM,69.8,62.6,78,29.93,10.0,North,9.2,-,N/A,,Scattered Clouds,10,2013-06-29 00:13:00
7:33 PM,69.8,62.6,78,29.93,10.0,North,9.2,-,N/A,,Clear,360,2013-06-29 00:33:00
7:53 PM,69.8,62.6,78,29.93,10.0,North,9.2,-,N/A,,Clear,350,2013-06-29 00:53:00
8:13 PM,69.8,64.4,83,29.94,10.0,NNW,9.2,-,N/A,,Mostly Cloudy,340,2013-06-29 01:13:00
8:33 PM,71.6,64.4,78,29.94,10.0,North,12.7,18.4,N/A,,Mostly Cloudy,350,2013-06-29 01:33:00
8:53 PM,69.8,64.4,83,29.95,10.0,North,9.2,16.1,N/A,,Mostly Cloudy,350,2013-06-29 01:53:00
9:13 PM,69.8,64.4,83,29.95,10.0,NNW,8.1,-,N/A,,Mostly Cloudy,340,2013-06-29 02:13:00
9:33 PM,69.8,64.4,83,29.95,10.0,North,10.4,-,N/A,,Overcast,350,2013-06-29 02:33:00
9:53 PM,69.8,64.4,83,29.95,10.0,North,9.2,-,N/A,,Scattered Clouds,350,2013-06-29 02:53:00
10:13 PM,68.0,64.4,88,29.96,10.0,North,8.1,-,N/A,,Scattered Clouds,350,2013-06-29 03:13:00
10:33 PM,66.2,62.6,88,29.96,10.0,North,6.9,-,N/A,,Scattered Clouds,350,2013-06-29 03:33:00
10:53 PM,66.2,62.6,88,29.96,10.0,North,9.2,-,N/A,,Mostly Cloudy,350,2013-06-29 03:53:00
11:13 PM,66.2,62.6,88,29.96,10.0,NNW,8.1,-,N/A,,Scattered Clouds,340,2013-06-29 04:13:00
11:34 PM,64.4,62.6,94,29.95,10.0,North,8.1,-,N/A,,Scattered Clouds,350,2013-06-29 04:34:00
11:53 PM,64.4,62.6,94,29.95,10.0,NNW,6.9,-,N/A,,Scattered Clouds,330,2013-06-29 04:53:00